Lid_Strength_Index
1 3 5 7 14 16 18 15 12 11 12 10 8 8 7 7 8 12 2 1 1 1 -0 -0 -1 -1 -1 -1 -1 -1 -1 -1 -1 -1 -1 -1 -1 -1 -1 -1 -1 -1 -1 -1 -1 -1 -1 -1 -1
0 2 5 9 16 20 18 14 13 11 10 9 9 9 7 8 5 5 4 1 1 0 0 -0 -0 -1 -1 -1 -1 -1 -1 -1 -1 -1 -1 -1 -1 -1 -1 -1 -1 -1 -1 -1 -1 -1 -1 -1 -1
2 1 7 11 18 19 18 15 12 11 10 11 11 8 6 7 4 4 2 1 1 0 -0 -0 -0 -0 -1 -1 -1 -1 -1 -1 -1 -1 -1 -1 -1 -1 -1 -1 -1 -1 -1 -1 -1 -1 -1 -1 -1
5 7 8 14 16 15 15 12 11 10 9 10 10 10 5 3 3 2 1 1 1 1 -0 -0 -0 -1 -1 -1 -1 -1 -1 -1 -1 -1 -1 -1 -1 -1 -1 -1 -1 -1 -1 -1 -1 -1 -1 -1 -1
7 10 14 16 15 13 11 10 9 10 10 10 10 9 7 3 2 1 1 1 1 1 0 -0 -0 -1 -1 -1 -1 -1 -1 -1 -1 -1 -1 -1 -1 -1 -1 -1 -1 -1 -1 -1 -1 -1 -1 -1 -1
11 11 16 17 14 11 10 9 9 9 9 10 10 7 7 3 3 2 1 1 1 1 0 -0 -0 -1 -1 -1 -1 -1 -1 -1 -1 -1 -1 -1 -1 -1 -1 -1 -1 -1 -1 -1 -1 -1 -1 -2 -2
13 15 17 16 14 13 10 9 10 10 10 10 9 11 6 4 2 2 1 1 1 0 0 0 -0 -0 -1 -1 -1 -1 -1 -1 -1 -1 -1 -1 -1 -1 -1 -1 -1 -1 -1 -1 -1 -2 -2 -2 -2
12 15 17 16 15 15 10 9 10 10 9 7 8 11 8 4 2 2 1 1 1 1 1 0 0 -0 -0 -0 -1 -1 -1 -1 -1 -1 -1 -1 -1 -1 -1 -1 -1 -1 -1 -1 -1 -2 -2 -2 -2
13 17 19 17 15 14 11 12 9 8 9 8 8 9 6 3 2 2 3 2 2 1 1 0 0 0 0 -0 -0 -1 -1 -1 -1 -1 -1 -0 0 -0 -0 -1 -1 -1 -1 -1 -2 -2 -2 -2 -2
15 19 17 13 13 13 12 12 10 10 10 9 8 10 9 8 4 4 4 4 3 3 2 1 0 0 1 0 -0 -0 -0 -0 -0 -0 -0 -0 0 0 -0 -1 -1 -1 -1 -1 -2 -2 -2 -2 0
15 16 14 12 12 12 12 12 11 11 12 10 9 12 11 8 7 4 4 3 3 2 2 1 1 1 0 0 -0 -0 -0 -0 -0 -0 0 1 0 0 0 0 0 1 -1 0 -0 -0 -0 0 0
15 12 12 12 11 13 13 11 11 11 11 9 8 8 10 11 9 7 8 3 3 3 2 1 1 0 0 0 0 -0 0 -0 -0 -0 0 0 0 0 0 0 0 0 0 0 0 0 0 0 0
14 12 10 10 10 11 10 11 11 11 9 8 8 7 8 11 10 8 6 4 3 3 2 1 1 1 1 0 0 0 0 0 0 -0 -0 -0 1 0 1 1 0 0 0 0 0 0 1 2 2
10 10 9 8 9 9 9 9 10 9 7 8 9 9 9 8 9 10 8 3 3 3 3 2 1 1 0 1 1 1 1 1 0 -0 -0 -0 1 1 1 1 1 1 0 0 1 1 2 2 1
8 10 8 8 8 9 8 9 9 6 7 8 9 9 9 8 7 9 10 7 3 3 3 3 3 1 1 2 2 3 2 2 1 0 0 -0 -0 1 1 0 2 1 1 1 2 1 0 1 2
9 11 14 10 8 7 9 12 8 6 7 8 8 9 9 9 8 9 8 3 3 3 3 3 1 2 3 2 2 2 3 2 1 0 -0 -0 -0 1 0 1 2 2 1 1 1 1 1 2 2
12 14 13 11 8 8 10 11 8 7 7 7 7 9 9 9 9 8 9 3 2 2 3 2 2 2 2 2 1 2 2 1 1 0 1 0 0 0 1 1 1 1 0 1 1 3 3 3 3
14 14 12 12 9 8 10 10 8 8 8 8 7 7 9 9 9 8 8 3 2 2 2 2 1 1 1 1 1 1 1 0 1 0 1 -0 0 0 1 1 1 0 1 3 3 4 4 4 2
10 11 12 10 8 9 9 9 8 8 9 10 9 8 9 9 8 8 7 3 2 2 2 2 2 1 1 1 2 2 2 1 1 0 0 0 0 0 0 0 1 1 2 3 4 4 5 5 5
10 12 12 10 8 9 10 10 8 9 9 9 8 8 8 9 8 8 8 3 3 3 2 2 2 2 1 1 1 1 1 1 1 0 0 0 0 0 0 2 2 3 3 3 3 4 4 5 5
10 11 11 11 9 9 10 11 10 8 8 8 7 7 7 7 8 8 8 5 3 3 3 2 2 2 2 2 1 1 1 1 2 1 1 0 -0 0 1 2 3 3 3 4 4 4 5 5 5
12 9 9 10 12 15 10 18 12 10 9 8 7 7 7 7 6 7 8 8 4 3 2 2 2 2 3 3 2 2 3 3 2 2 1 1 0 1 2 3 3 4 3 4 4 3 3 4 5
12 9 10 11 13 13 13 16 13 10 10 9 7 7 7 7 7 7 8 8 3 3 3 2 2 2 2 1 1 2 2 2 2 2 2 2 2 2 2 3 3 3 3 4 4 4 5 5 6
8 11 12 12 14 19 14 15 14 12 10 8 7 7 6 6 6 5 6 7 5 3 3 2 2 2 2 1 1 2 2 2 2 3 3 2 3 3 3 3 3 4 4 4 4 4 5 5 5
10 14 19 20 21 20 13 15 14 10 8 8 8 7 6 6 6 5 6 8 6 4 3 3 2 3 2 2 2 2 2 2 3 2 3 3 3 3 3 3 4 4 3 3 4 5 5 5 5
13 14 18 23 22 19 14 19 15 9 7 7 6 6 6 7 7 6 5 5 7 4 3 3 3 3 2 2 3 2 2 2 2 2 3 3 4 3 3 4 4 4 3 3 4 5 4 4 4
14 16 12 16 16 19 17 14 10 9 9 7 7 7 7 7 6 6 6 7 6 4 3 3 3 3 2 2 3 2 1 2 2 3 3 3 3 4 4 4 5 3 3 4 5 4 4 4 5
12 10 17 16 22 22 18 16 15 12 11 9 8 8 8 7 6 7 7 7 4 3 3 3 2 3 2 2 2 2 1 1 2 3 3 4 4 4 5 4 4 4 4 4 4 4 4 5 6
13 15 14 14 16 21 21 18 11 11 10 9 8 8 8 8 6 6 7 6 4 3 3 3 3 3 2 2 2 2 2 1 2 3 3 4 4 5 4 4 5 4 5 4 4 4 4 5 5
11 12 13 18 19 17 18 17 9 10 9 9 8 7 8 7 7 6 6 6 4 4 4 3 3 3 2 2 2 2 2 1 3 4 4 4 5 4 4 4 4 4 4 4 4 4 4 5 6